Tracking 17141 objects as of 6-July-2015
HD Live streaming from Space Station

MINOTAUR R/B

Track MINOTAUR R/B now!
10-day predictions
MINOTAUR R/B is classified as:


NORAD ID: 26066
Int'l Code: 2000-004F
Perigee: 749.9 km
Apogee: 798.1 km
Inclination: 100.2 °
Period: 100.2 minutes
Semi major axis: 7145 km
RCS: 1.5369 m2 (large)
Launch date: January 27, 2000
Source: United States (US)

Note: This is a ROCKET BODY
Your satellite tracking list
Your tracking list is empty





NASA's NSSDC Master Catalog

Two Line Element Set (TLE):
1 26066U 00004F   15186.49549810  .00000097  00000-0  51754-4 0  9997
2 26066 100.2104 059.6654 0033706 136.4617 291.7905 14.37463467809546

Source of the keplerian elements: AFSPC

N2YO: 287